Theta_e
322 322 322 322 322 322 315 316 317 318 319 320 320 320 321 323 323 323 324 324 322 320 319 319 317 313 306 299 298 307 314 311 307 306 302 302 302 301 297 297 297 298 296 296 296 295 295
322 322 322 321 321 322 324 320 321 321 321 321 320 319 321 323 323 323 323 323 322 319 319 318 314 314 302 293 306 308 306 307 305 305 302 301 300 300 297 294 296 295 294 294 294 294 294
321 321 321 321 321 320 323 322 321 321 321 322 323 323 323 323 324 324 324 323 321 320 319 317 311 306 301 297 306 308 307 306 306 304 301 301 300 300 296 293 294 295 292 294 294 295 295
320 320 321 322 322 321 320 320 321 321 321 321 321 321 321 321 321 321 321 320 318 317 317 315 309 306 297 305 310 308 309 307 309 308 305 305 305 300 297 297 295 294 294 292 293 296 295
320 320 320 321 322 322 321 320 320 320 320 320 320 319 319 319 318 318 318 318 316 316 316 313 306 304 296 309 303 306 308 303 305 305 305 302 302 298 297 295 294 292 291 289 291 296 296
320 320 320 320 320 321 321 321 321 319 319 319 318 318 318 317 316 315 315 317 315 314 309 306 304 301 302 299 303 305 309 306 302 301 301 301 300 297 297 295 291 288 290 291 291 295 295
318 319 319 319 319 319 319 319 319 318 318 318 318 317 316 315 315 312 312 308 304 303 304 299 297 298 299 305 307 306 307 304 302 300 295 296 297 294 292 293 293 292 291 290 293 294 293
317 317 318 318 317 318 318 318 317 317 317 318 317 316 315 314 313 310 310 303 300 304 296 301 301 301 303 304 299 304 307 299 298 294 295 297 293 293 294 294 293 292 290 291 294 293 294
317 317 317 317 317 317 317 317 317 316 316 316 317 315 314 313 311 309 305 302 306 304 298 295 300 300 301 304 300 301 303 299 296 294 294 294 292 293 293 293 291 291 290 290 289 294 294
316 316 316 316 316 316 316 316 316 316 315 315 315 315 313 312 309 305 302 306 307 303 297 290 296 300 303 301 298 304 305 300 297 293 293 293 293 292 293 291 292 288 292 291 291 290 288
316 315 315 315 315 315 315 315 316 315 315 314 314 314 310 311 304 303 304 307 305 301 287 291 296 304 302 299 299 301 305 301 294 293 293 290 291 291 291 291 293 291 293 292 291 289 287
315 315 315 314 314 314 315 315 315 315 314 313 313 312 310 307 307 305 307 304 302 294 285 289 295 295 296 298 298 301 300 303 300 295 296 293 296 294 293 294 294 294 291 289 290 289 286
313 313 314 314 314 314 314 314 314 314 313 311 311 310 308 305 302 306 305 303 293 288 288 288 291 294 293 293 295 297 294 293 292 290 289 291 293 295 295 292 294 293 290 288 288 287 288
315 315 314 313 312 312 313 313 313 314 313 311 308 309 304 304 307 305 303 296 288 285 286 291 292 292 290 292 293 293 292 291 293 291 290 288 289 292 295 292 291 290 288 286 280 282 284
315 315 314 314 314 314 314 313 313 314 313 310 306 306 306 306 306 305 300 292 288 288 290 291 291 289 289 291 292 291 292 291 292 292 287 287 285 293 294 295 294 290 289 289 284 283 282
316 316 315 314 314 314 313 314 314 313 313 307 305 305 305 305 305 303 298 288 289 291 293 293 287 289 287 289 289 289 289 293 292 294 293 289 284 289 293 296 295 292 292 286 286 281 280
317 316 316 315 314 314 314 313 313 313 311 305 305 301 304 303 303 299 293 290 291 294 295 292 289 289 289 288 289 288 288 292 294 293 294 291 287 286 291 290 290 290 289 288 286 285 282
316 316 316 315 315 314 314 314 313 312 308 304 301 300 302 303 298 294 292 292 294 293 295 294 293 291 289 289 288 287 288 290 296 295 290 292 289 285 286 290 292 292 290 290 286 282 284
315 316 316 315 315 314 314 314 313 311 307 303 298 298 302 301 295 292 293 292 293 292 292 292 291 292 292 289 286 288 289 294 295 294 291 292 287 283 282 286 289 288 290 290 287 287 283
315 316 315 315 315 314 314 313 313 311 308 302 297 297 298 297 293 293 291 290 291 295 293 293 292 293 291 289 290 287 288 292 294 294 295 295 288 285 284 283 287 285 288 290 289 285 285
315 315 315 315 315 314 314 313 312 311 307 303 296 292 291 291 291 291 291 290 289 289 293 294 291 291 290 286 286 286 289 290 292 295 294 293 286 286 287 287 287 285 286 287 285 287 283
314 315 315 314 314 314 313 313 312 310 306 301 298 295 291 291 290 290 289 290 289 289 291 289 290 289 291 288 288 286 288 289 289 293 292 291 286 285 283 287 285 283 286 286 286 286 287
315 314 314 314 313 313 312 312 312 309 306 300 297 297 296 289 289 290 289 288 289 291 292 292 292 291 289 291 294 294 294 293 291 291 291 290 288 284 282 283 284 282 285 286 286 287 287
315 315 314 314 313 312 312 312 312 310 304 302 299 298 297 294 291 290 289 289 290 291 290 292 293 291 293 296 296 293 292 291 290 290 293 288 287 286 282 284 279 286 288 288 287 288 289
316 315 315 314 313 312 311 311 312 311 306 303 301 299 297 294 292 293 291 291 292 292 291 292 293 295 296 294 290 288 286 284 285 286 288 290 288 284 281 279 285 286 285 286 285 285 288
316 316 315 314 312 311 310 310 311 311 308 305 303 302 299 295 294 293 292 291 293 293 291 290 295 297 295 292 289 285 286 284 283 283 287 287 289 285 281 278 279 284 287 290 289 283 289
316 316 315 314 312 311 310 309 308 310 310 306 305 303 300 296 297 294 294 294 293 291 291 292 292 293 294 290 287 286 286 285 284 282 282 283 284 282 282 280 283 290 291 290 283 285 291
315 315 314 314 313 312 310 308 309 309 310 308 304 304 301 297 297 296 296 294 292 293 292 294 293 291 290 287 287 288 285 286 283 285 284 284 282 281 282 280 278 292 289 287 290 293 294
314 315 313 313 312 310 308 308 309 310 310 308 303 303 302 298 298 300 299 300 299 299 296 296 295 292 294 290 288 288 285 285 285 283 287 283 288 286 286 287 293 292 293 295 295 292 294
Wind_Speed
28 27 28 29 29 23 11 11 10 8 10 14 16 15 13 16 25 17 15 15 14 9 8 8 6 3 2 9 7 10 19 14 4 3 4 2 3 4 5 5 3 4 5 2 2 3 4
29 28 28 28 28 29 25 18 17 16 15 17 14 13 12 21 19 16 14 13 10 5 6 8 6 2 3 11 7 11 12 7 9 5 5 5 4 5 9 4 2 3 3 2 1 2 2
27 28 25 26 29 30 30 26 22 17 18 17 24 22 21 19 14 13 10 8 4 5 7 10 7 10 19 9 5 9 7 6 6 4 5 5 2 3 4 6 3 3 3 3 3 3 2
26 26 25 25 25 27 27 25 25 25 22 23 21 19 18 16 13 11 9 9 6 8 8 7 4 7 8 2 5 9 9 7 10 6 6 2 8 10 5 6 3 1 2 3 3 5 1
23 23 24 25 25 24 24 25 23 22 21 20 19 17 15 13 9 9 9 7 8 9 4 1 2 4 6 5 4 7 7 4 3 5 6 5 5 5 2 1 3 1 3 3 2 2 4
22 22 23 23 23 23 22 22 20 21 18 17 15 13 11 10 8 5 4 4 2 4 3 2 4 6 5 4 4 6 4 5 5 3 2 6 5 4 3 2 2 1 3 2 6 4 7
21 22 22 22 22 22 23 22 20 18 15 14 12 10 13 12 6 4 2 2 3 6 15 8 3 6 2 5 3 6 5 3 2 5 4 5 6 6 5 6 5 3 2 6 5 4 10
21 20 21 21 22 21 21 19 19 18 16 15 14 10 8 7 12 8 5 5 3 3 12 8 4 5 2 2 1 14 8 2 4 4 2 3 6 3 2 3 3 2 4 5 7 3 8
19 20 20 20 20 19 19 19 18 17 16 16 13 10 9 4 2 8 9 5 3 3 5 6 4 4 4 4 5 10 8 2 6 6 7 4 5 3 0 2 3 2 3 4 5 12 4
18 18 19 19 20 20 20 19 18 17 15 13 14 14 14 1 3 1 5 3 3 3 4 10 6 5 2 2 4 3 4 3 4 4 4 6 2 1 2 2 3 3 1 3 9 9 5
17 17 17 17 18 18 18 19 19 19 16 13 12 12 12 13 5 4 4 4 1 3 4 7 4 3 3 4 1 7 3 3 5 4 2 2 3 2 0 2 1 3 2 4 4 3 5
17 17 17 17 16 17 18 19 19 19 17 13 11 13 1 4 4 3 5 2 2 3 2 2 3 4 1 5 3 3 3 6 2 3 6 3 1 1 1 1 1 1 3 1 1 2 3
16 16 17 17 18 18 18 18 18 19 16 12 8 14 8 2 3 4 2 2 4 3 0 1 2 3 3 4 3 4 3 4 2 2 2 2 3 2 2 2 2 2 2 3 2 1 2
15 16 17 18 19 19 19 18 19 19 17 12 8 5 6 4 2 3 2 1 5 1 3 1 1 1 2 2 3 2 2 3 2 2 2 1 1 1 2 2 2 2 2 2 4 4 5
14 15 15 17 18 20 20 19 19 17 15 10 5 2 2 4 4 2 2 4 1 2 2 5 2 1 2 1 1 1 1 1 1 1 3 1 1 1 1 1 2 3 2 2 1 1 5
13 14 14 15 16 17 19 21 21 18 14 5 2 1 2 5 3 1 3 4 1 0 1 1 0 2 2 2 1 1 1 2 2 1 3 2 3 0 2 2 3 4 5 3 1 4 5
12 13 15 15 15 16 16 18 19 20 14 2 2 1 2 5 2 2 4 3 2 2 1 0 2 3 2 1 0 0 1 2 2 4 0 3 2 3 2 7 5 5 4 2 3 3 4
11 13 13 13 14 15 17 18 19 19 13 3 1 1 2 2 1 2 3 2 1 2 1 1 1 2 2 3 2 2 2 2 4 5 1 1 2 4 1 2 2 2 2 5 3 4 2
9 10 11 13 14 15 17 19 20 18 11 1 2 2 2 2 2 3 3 3 1 2 1 1 2 1 1 1 1 2 2 1 5 5 3 5 2 4 3 3 3 6 6 5 2 2 9
10 11 11 11 11 14 16 18 19 19 8 2 0 1 3 4 2 3 3 2 3 1 2 2 2 1 1 1 1 1 2 0 3 2 2 4 3 6 4 3 2 5 7 11 10 6 6
7 9 10 11 11 12 15 18 20 20 8 0 5 3 2 3 4 3 1 2 2 2 1 1 2 3 3 2 2 3 3 2 2 2 2 3 5 3 11 14 13 15 17 15 17 17 11
5 7 9 9 11 13 14 15 19 22 7 5 2 1 1 2 1 1 2 3 4 3 4 2 3 2 6 4 3 2 3 4 3 4 5 2 3 2 7 10 7 14 16 18 21 22 22
6 6 6 7 8 10 12 15 16 20 9 3 1 2 3 1 1 2 1 2 2 1 3 2 4 4 5 8 6 8 8 7 2 3 7 4 3 3 6 3 13 13 8 10 8 7 18
7 6 6 6 6 7 10 11 12 15 9 2 1 1 1 1 1 1 0 1 1 2 2 1 3 3 1 2 5 3 3 4 5 7 5 5 4 2 7 10 5 4 2 4 9 6 15
10 8 6 5 4 4 5 8 9 10 11 3 1 1 1 1 2 3 4 3 3 3 3 3 4 1 1 1 3 5 3 3 3 4 6 6 7 4 5 4 13 2 2 4 3 5 3
11 10 9 7 5 2 1 4 5 6 6 3 2 2 1 2 2 1 1 2 2 2 2 2 1 1 0 0 2 3 3 1 3 3 4 6 7 7 2 4 6 3 3 4 2 6 3
14 12 11 10 8 5 3 1 3 4 4 2 2 1 2 3 2 4 4 2 2 1 2 1 2 2 1 2 4 5 4 1 4 4 6 5 6 13 10 6 11 6 2 2 4 4 8
15 13 13 11 10 8 4 1 2 3 3 1 1 0 1 2 5 6 4 5 3 3 3 3 2 3 2 5 4 3 4 3 3 2 5 8 9 7 6 6 11 2 3 3 4 8 10
14 13 12 11 9 7 4 1 2 3 1 2 1 1 1 2 5 2 5 9 7 5 2 3 3 2 3 3 3 1 4 4 5 4 4 6 7 4 11 8 1 2 5 7 9 10 11
Wind_Direction
32 29 35 42 45 39 101 86 88 83 110 116 113 109 108 118 133 143 133 125 131 141 130 117 107 80 152 74 57 324 327 340 350 48 40 122 111 128 112 106 128 101 145 125 50 322 301
36 39 44 43 42 30 51 111 100 86 85 93 105 132 131 116 120 123 125 131 137 148 126 109 94 79 69 85 333 327 334 7 27 50 49 15 107 108 94 73 6 72 116 108 34 341 302
38 41 39 42 47 45 62 76 84 90 94 80 96 101 114 106 111 112 123 126 142 149 137 102 89 94 66 71 327 337 359 22 16 45 82 23 60 70 128 114 97 107 184 160 56 353 332
37 38 35 31 41 49 57 63 63 67 73 73 75 78 78 87 85 96 102 103 110 94 103 95 87 82 73 350 317 15 3 61 50 55 80 69 67 85 37 119 115 169 233 262 83 347 47
36 35 37 33 33 45 52 57 55 59 57 56 57 61 64 65 75 91 100 116 103 77 91 21 38 79 77 324 13 349 12 22 349 61 62 66 59 67 109 150 155 89 293 305 286 51 310
33 31 34 37 37 35 45 51 54 52 50 52 56 62 59 57 54 78 81 91 73 83 23 142 82 114 46 9 330 336 1 5 31 336 86 42 47 86 43 326 292 15 326 299 290 13 311
34 31 30 33 37 40 40 40 43 52 51 48 46 48 65 46 53 90 171 243 217 45 35 53 58 74 49 333 322 11 359 337 32 58 51 35 65 72 78 48 69 84 329 302 304 355 312
32 34 32 31 30 33 36 38 39 35 31 34 38 38 35 43 45 77 69 68 17 97 79 44 62 76 56 329 11 22 357 58 41 71 325 113 84 102 93 66 67 40 322 329 291 303 314
31 31 31 30 30 29 29 31 33 32 25 17 17 17 8 28 112 54 74 66 338 290 82 41 20 30 355 354 47 3 1 42 53 57 30 78 95 133 153 78 357 29 336 350 315 317 260
32 30 30 31 28 22 22 25 22 22 21 15 9 6 1 249 80 346 54 349 322 275 91 6 6 46 0 10 69 356 17 27 60 92 59 70 105 111 80 58 335 305 50 312 307 331 314
31 34 28 26 27 23 19 21 20 12 10 11 10 12 30 39 106 49 11 330 302 245 84 350 3 332 357 47 25 42 5 36 74 97 243 101 143 130 190 50 282 11 326 307 305 292 304
24 23 25 23 22 20 15 13 15 15 7 6 16 14 61 38 64 23 321 309 250 47 107 16 309 353 66 33 55 339 48 60 82 79 50 89 94 257 61 123 274 353 246 266 168 298 248
26 23 20 17 15 13 11 9 8 9 8 4 26 45 49 19 61 329 284 248 43 69 3 174 63 23 77 37 69 24 37 56 44 95 22 165 165 146 232 215 166 323 342 304 279 258 314
26 23 18 15 11 8 6 4 3 1 2 4 28 61 44 51 355 317 259 100 80 55 201 139 169 101 80 5 57 35 129 130 90 9 113 360 202 172 126 344 349 41 322 308 287 307 321
22 19 17 13 9 5 2 359 358 355 353 356 343 36 65 20 343 286 238 60 133 166 129 155 138 167 116 117 303 224 45 95 86 12 24 333 194 101 61 66 314 116 243 9 306 204 270
24 19 17 13 9 6 1 356 351 352 350 3 66 61 41 344 309 240 85 105 92 106 115 165 5 332 152 107 235 334 12 91 126 31 345 138 266 171 108 164 88 272 133 214 173 316 295
18 22 15 14 9 1 359 357 355 350 355 143 77 196 68 334 255 67 73 80 131 195 252 188 144 135 105 132 316 223 87 132 183 144 122 163 253 127 215 202 185 162 199 189 304 278 292
12 13 13 9 3 0 357 356 1 1 355 40 75 36 59 209 32 46 66 70 137 131 56 104 96 95 160 161 187 222 235 261 162 165 209 136 277 247 239 97 338 285 246 224 246 173 247
14 9 7 10 3 360 357 355 357 6 18 321 63 342 73 273 64 80 114 95 71 151 166 135 116 30 64 139 245 232 229 41 173 184 190 167 215 288 182 166 194 239 196 211 139 341 217
354 3 8 4 3 359 356 355 357 1 16 84 79 43 25 59 21 72 133 119 124 57 102 71 97 109 144 181 194 300 251 109 187 215 122 178 252 260 281 17 51 221 205 211 212 216 257
349 341 347 358 6 7 1 358 357 0 358 80 10 63 13 16 54 58 30 130 137 176 61 166 138 233 195 203 205 230 225 237 170 178 125 242 259 247 267 275 263 260 258 234 219 227 242
318 328 338 357 356 3 7 6 2 2 5 76 32 331 151 80 304 187 351 185 179 172 182 179 225 166 202 235 238 219 195 214 239 164 192 197 261 303 278 274 273 266 261 247 246 248 254
296 304 323 341 356 2 6 8 13 10 12 62 87 128 287 40 69 277 67 146 220 218 198 223 189 182 217 248 265 276 263 273 300 198 189 205 246 323 274 277 297 271 253 213 206 221 231
259 269 286 309 344 4 6 11 17 27 45 72 25 292 307 74 262 339 257 252 244 256 301 123 200 217 73 296 264 222 237 248 238 225 244 179 189 237 287 313 258 58 194 249 209 240 219
252 244 243 262 294 345 3 12 22 31 38 76 107 311 4 318 298 236 214 231 274 274 248 250 220 273 286 344 278 297 185 181 85 58 232 235 215 258 275 276 303 175 151 149 202 66 62
255 242 227 222 223 211 17 19 20 31 50 93 69 338 351 305 186 288 248 198 256 240 226 223 80 74 109 205 214 240 273 346 179 158 41 178 240 228 185 250 264 93 164 161 207 202 76
261 244 221 212 204 200 188 344 353 7 35 82 100 136 318 299 235 186 220 249 162 198 259 240 170 179 299 198 225 221 240 284 241 213 165 152 196 219 226 265 283 282 236 184 249 57 341
247 243 214 205 206 184 175 237 320 322 340 340 65 141 325 271 271 218 218 198 174 209 228 131 213 168 159 212 213 202 225 211 259 172 187 185 169 193 198 230 262 202 143 271 14 321 315
238 223 191 198 186 146 139 20 341 347 270 137 306 39 54 238 285 243 251 259 255 247 258 219 318 159 218 208 229 228 215 209 222 242 196 230 225 194 208 222 358 195 279 297 293 285 303